Lid_Strength_Index
9 9 8 8 8 8 8 8 7 7 7 7 7 7 8 8 8 8 8 8 8 8 8 8 8 8 8 8 9 8 8 9 10 8 8 8 8 8 7 7 7 7 7
9 9 8 8 8 8 8 8 8 9 8 8 8 8 8 8 8 9 9 8 9 9 9 9 9 8 9 9 9 9 9 9 10 11 10 10 9 9 8 9 8 8 8
8 8 8 8 8 8 8 8 8 8 8 8 8 8 8 9 9 9 9 9 10 10 10 10 10 10 10 10 10 10 10 10 11 12 11 10 10 9 9 10 9 9 9
7 7 7 7 7 7 7 7 7 8 8 8 9 9 9 10 10 10 10 10 10 10 10 10 10 10 10 10 11 11 11 11 11 11 11 11 10 10 10 11 11 11 10
7 7 7 7 7 7 7 7 7 8 8 9 9 9 9 9 9 10 10 10 10 10 10 10 10 10 10 10 10 11 10 11 11 11 11 11 11 12 11 10 11 10 10
8 8 7 7 7 8 8 8 9 9 9 10 10 10 10 10 9 9 10 10 10 11 11 11 10 11 11 9 9 8 8 9 10 10 11 11 11 10 10 10 11 12 13
8 8 8 8 8 8 8 9 9 9 10 10 10 10 10 10 9 9 10 11 11 11 11 12 11 11 11 10 9 8 8 8 8 9 11 11 11 9 10 11 11 11 11
8 8 8 9 9 9 9 9 9 10 10 10 10 11 11 11 9 9 10 11 11 12 12 12 11 11 10 11 10 11 11 11 10 10 9 9 9 9 9 9 10 10 9
9 9 9 9 9 10 10 10 10 10 10 10 11 11 11 11 9 8 9 12 12 12 12 11 11 11 10 9 11 11 12 11 9 8 8 8 7 7 7 9 10 11 12
10 10 10 10 10 10 9 10 10 10 10 11 11 11 12 12 9 8 9 12 12 13 12 11 11 11 9 8 11 12 12 11 11 10 10 9 8 8 8 8 9 11 12
11 11 10 10 10 10 10 10 10 10 11 11 11 12 12 12 11 8 8 11 12 13 13 13 12 9 9 8 8 11 11 9 10 10 10 10 10 10 10 10 10 10 11
12 12 12 12 11 11 12 12 12 11 13 13 13 13 13 12 12 10 9 9 10 12 12 12 11 9 8 8 9 8 8 9 10 11 11 11 11 11 11 10 10 10 10
14 14 14 13 12 12 13 12 13 13 13 13 14 14 14 13 13 9 9 8 8 11 12 11 10 9 8 9 9 9 10 10 11 12 12 12 11 11 11 11 11 11 11
16 15 15 15 14 13 13 13 14 15 15 14 14 15 14 13 13 13 13 14 12 12 11 13 11 10 10 10 11 11 11 12 12 13 13 13 12 13 13 12 13 13 17
15 15 15 15 17 16 14 14 13 13 13 17 18 17 17 18 15 12 12 14 12 10 11 12 12 12 13 14 15 13 13 14 14 14 16 18 17 17 17 16 16 19 23
16 16 16 16 16 15 16 16 11 11 10 10 11 13 14 12 11 11 11 11 11 11 13 14 14 14 16 16 17 18 17 20 19 17 19 19 18 17 17 19 22 25 25
19 17 17 16 15 15 15 16 17 14 11 11 11 11 11 11 11 11 11 12 13 15 18 19 19 19 20 21 22 22 21 20 18 19 19 18 18 22 22 22 23 25 27
19 18 19 18 19 16 16 16 18 18 19 18 14 12 11 12 11 12 13 15 19 19 20 22 24 24 24 23 23 23 21 21 21 20 21 21 21 22 23 23 24 26 27
21 21 22 21 21 20 19 19 17 18 20 18 17 15 15 12 13 15 16 21 22 24 25 24 26 25 25 25 23 23 25 25 24 25 26 26 23 24 25 25 24 24 25
23 20 21 22 22 19 18 17 16 16 16 16 18 19 17 18 21 24 24 25 25 27 26 25 26 27 26 26 26 27 27 25 26 27 27 27 24 25 24 25 25 26 26
17 16 15 16 17 16 16 16 16 17 18 19 20 18 16 21 24 27 28 27 27 27 27 28 27 27 28 27 27 28 29 30 30 29 28 27 27 28 28 28 30 28 28
26 25 23 21 18 19 18 19 19 19 21 21 22 17 16 22 24 27 27 27 27 28 30 30 29 28 27 27 27 28 29 29 28 28 27 28 30 30 30 29 29 28 27
28 28 27 26 25 24 24 25 24 24 24 25 23 22 23 25 28 28 27 27 28 29 30 30 29 29 28 28 27 27 27 25 24 28 29 31 30 29 30 30 29 28 26
28 26 24 24 23 23 22 24 23 23 23 23 23 25 27 30 29 29 30 30 30 32 33 33 33 32 31 29 28 24 25 28 30 30 30 30 30 28 29 30 29 28 26
26 25 24 24 24 22 23 23 22 23 23 24 26 29 30 30 30 31 31 31 32 31 31 31 31 30 28 27 27 25 20 24 26 26 31 30 30 30 30 30 29 29 25
25 24 24 24 23 23 22 23 24 25 26 27 28 29 29 29 31 31 30 31 31 30 30 31 30 30 30 30 28 20 17 18 23 25 31 29 27 27 29 29 28 29 29